COSMOS 2501 (702K)

Last updated on Mon Sep 07 2026 00:03:21 GMT+0000 (Coordinated Universal Time)

1 40315U 14075A 26249.01325971 .00000003 00000+0 00000+0 0 9992 2 40315 63.6175 187.5753 0022218 210.7537 149.1087 2.13101324 91578
UTC large
Height (km)
Speed (km/s)
/
Latitude / Longitude
Inclination (degrees)
Orbital Period (minutes)
Azimuth
Elevation
Range (km)
Doppler Factor

Next 0 passes for location: London (51.5072 / 0.1276)

No passes found over London.
COSMOS 2501 (702K)